PTI737 VOCI-EGKK

Flight info

Callsign PTI737
Flight time N/A
Altitude 34000
Route AKLON1C AKLON P895 VASTU M300 LOTAV N569 UMILA L883 SITOL DCT ALROK DCT BOSOB DCT ITRUX Y511 PMA Z712 WEJ L677 GESON Q777 RASDA DCT OTHON DCT VAXOS DCT RDS UL609 MES DCT FSK DCT DISOR DCT LONTA UL608 DOLEV DCT SABAD DCT KUBUD DCT SOTOV DCT XEBIX DCT USUDO DCT LIRSU DCT DENUT L610 TEBRA
Aircraft B737/M-SDE2E3FGHIRWXY/LB1

Departure

Time N/A
Airport Cochin International Airport (VOCI)

Arrival

Time 2026-05-06 08:42
Airport London Gatwick Airport (EGKK)
Time Latitude Longitude Altitude Speed Heading
2026-05-06 00:07 21.08405 59.41869 33838 ft 465 kts 287°
2026-05-06 00:08 21.09366 59.38574 33837 ft 465 kts 287°
2026-05-06 00:08 21.10553 59.34503 33842 ft 465 kts 287°
2026-05-06 00:09 21.12476 59.27901 33840 ft 464 kts 287°
2026-05-06 00:09 21.14400 59.21280 34072 ft 465 kts 287°
2026-05-06 00:09 21.15360 59.17972 34309 ft 464 kts 287°
2026-05-06 00:10 21.15993 59.15792 34481 ft 463 kts 287°
2026-05-06 00:10 21.16946 59.12506 34739 ft 461 kts 287°
2026-05-06 00:10 21.17895 59.09228 34940 ft 461 kts 287°
2026-05-06 00:10 21.18844 59.05952 35104 ft 461 kts 287°
2026-05-06 00:11 21.19793 59.02670 35256 ft 462 kts 287°
2026-05-06 00:11 21.20743 58.99380 35437 ft 461 kts 287°
2026-05-06 00:11 21.21690 58.96101 35632 ft 461 kts 287°
2026-05-06 00:11 21.22636 58.92823 35803 ft 460 kts 287°
2026-05-06 00:12 21.23581 58.89545 35833 ft 461 kts 286°
2026-05-06 00:12 21.25468 58.82993 35839 ft 459 kts 286°
2026-05-06 00:13 21.26648 58.76316 35841 ft 456 kts 271°
2026-05-06 00:13 21.26703 58.69529 35848 ft 455 kts 270°
2026-05-06 00:14 21.26711 58.62749 35852 ft 455 kts 270°
2026-05-06 00:14 21.26751 58.55968 35853 ft 455 kts 270°
2026-05-06 00:15 21.26812 58.49185 35854 ft 455 kts 270°
2026-05-06 00:15 21.26878 58.42391 35856 ft 456 kts 270°
2026-05-06 00:16 21.26941 58.35583 35854 ft 457 kts 270°
2026-05-06 00:16 21.27000 58.28762 35850 ft 458 kts 270°
2026-05-06 00:17 21.27056 58.21929 35848 ft 458 kts 270°
2026-05-06 00:17 21.27110 58.15097 35848 ft 459 kts 270°
2026-05-06 00:18 21.27160 58.08260 35849 ft 459 kts 270°
2026-05-06 00:18 21.27208 58.01416 35849 ft 459 kts 270°
2026-05-06 00:19 21.27253 57.94576 35851 ft 459 kts 270°
2026-05-06 00:19 21.27296 57.87732 35851 ft 459 kts 270°
2026-05-06 00:20 21.27336 57.80896 35856 ft 458 kts 270°
2026-05-06 00:20 21.27372 57.74071 35851 ft 457 kts 270°
2026-05-06 00:21 21.27406 57.67257 35847 ft 457 kts 270°
2026-05-06 00:21 21.27438 57.60458 35852 ft 456 kts 270°
2026-05-06 00:22 21.27466 57.53666 35850 ft 455 kts 270°
2026-05-06 00:22 21.27492 57.46889 35846 ft 454 kts 270°
2026-05-06 00:23 21.27515 57.40117 35847 ft 454 kts 270°
2026-05-06 00:23 21.27535 57.33349 35843 ft 454 kts 270°
2026-05-06 00:24 21.27553 57.26580 35843 ft 454 kts 270°
2026-05-06 00:24 21.27567 57.19808 35841 ft 454 kts 270°
2026-05-06 00:25 21.27580 57.13038 35836 ft 454 kts 270°
2026-05-06 00:25 21.27589 57.06311 35838 ft 454 kts 270°
2026-05-06 00:26 21.27596 56.99537 35837 ft 455 kts 270°
2026-05-06 00:26 21.27600 56.92753 35827 ft 455 kts 269°
2026-05-06 00:27 21.27591 56.85970 35826 ft 455 kts 269°
2026-05-06 00:27 21.27574 56.79186 35828 ft 455 kts 269°
2026-05-06 00:28 21.27557 56.72397 35819 ft 455 kts 269°
2026-05-06 00:28 21.27537 56.65616 35819 ft 455 kts 269°
2026-05-06 00:29 21.27515 56.58830 35816 ft 455 kts 269°
2026-05-06 00:29 21.27491 56.52064 35820 ft 455 kts 269°
2026-05-06 00:30 21.27464 56.45284 35814 ft 454 kts 269°
2026-05-06 00:30 21.27434 56.38514 35805 ft 454 kts 269°
2026-05-06 00:31 21.27402 56.31757 35809 ft 453 kts 269°
2026-05-06 00:31 21.27396 56.25007 35802 ft 453 kts 269°
2026-05-06 00:32 21.27401 56.18263 35804 ft 452 kts 269°
2026-05-06 00:32 21.27373 56.11522 35806 ft 452 kts 269°
2026-05-06 00:33 21.27325 56.04783 35802 ft 452 kts 269°
2026-05-06 00:33 21.27278 55.98051 35800 ft 452 kts 269°
2026-05-06 00:34 21.27232 55.91315 35800 ft 452 kts 269°
2026-05-06 00:34 21.27183 55.84573 35798 ft 452 kts 269°
2026-05-06 00:35 21.27128 55.77836 35796 ft 452 kts 269°
2026-05-06 00:35 21.27072 55.71095 35797 ft 452 kts 269°
2026-05-06 00:36 21.27013 55.64350 35797 ft 453 kts 269°
2026-05-06 00:36 21.26951 55.57602 35794 ft 453 kts 269°
2026-05-06 00:37 21.26887 55.50852 35789 ft 453 kts 269°
2026-05-06 00:37 21.26832 55.44100 35788 ft 453 kts 271°
2026-05-06 00:38 21.27806 55.37433 35801 ft 454 kts 283°
2026-05-06 00:38 21.29436 55.30881 35787 ft 455 kts 284°
2026-05-06 00:39 21.31059 55.24364 35784 ft 455 kts 283°
2026-05-06 00:39 21.32670 55.17752 35780 ft 456 kts 283°
2026-05-06 00:40 21.34241 55.11214 35776 ft 456 kts 283°
2026-05-06 00:40 21.35815 55.04635 35775 ft 456 kts 283°
2026-05-06 00:41 21.37388 54.98050 35777 ft 455 kts 283°
2026-05-06 00:41 21.38969 54.91424 35769 ft 455 kts 283°
2026-05-06 00:42 21.40526 54.84888 35769 ft 455 kts 283°
2026-05-06 00:42 21.42091 54.78304 35774 ft 455 kts 283°
2026-05-06 00:43 21.43662 54.71688 35770 ft 454 kts 283°
2026-05-06 00:43 21.45215 54.65130 35767 ft 453 kts 283°
2026-05-06 00:44 21.46763 54.58583 35766 ft 452 kts 283°
2026-05-06 00:44 21.48305 54.52050 35771 ft 451 kts 283°
2026-05-06 00:45 21.49843 54.45522 35763 ft 451 kts 283°
2026-05-06 00:45 21.51378 54.38990 35769 ft 451 kts 283°
2026-05-06 00:46 21.52912 54.32456 35772 ft 451 kts 283°
2026-05-06 00:46 21.54443 54.25919 35771 ft 451 kts 283°
2026-05-06 00:47 21.55972 54.19378 35780 ft 451 kts 283°
2026-05-06 00:47 21.57497 54.12843 35767 ft 451 kts 283°
2026-05-06 00:48 21.59010 54.06350 35768 ft 451 kts 283°
2026-05-06 00:48 21.60529 53.99815 35768 ft 451 kts 282°
2026-05-06 00:49 21.62055 53.93236 35771 ft 451 kts 282°
2026-05-06 00:49 21.63559 53.86745 35773 ft 451 kts 282°
2026-05-06 00:50 21.65070 53.80206 35773 ft 451 kts 282°
2026-05-06 00:50 21.66591 53.73617 35770 ft 451 kts 282°
2026-05-06 00:51 21.68098 53.67071 35774 ft 451 kts 282°
2026-05-06 00:51 21.69602 53.60529 35767 ft 450 kts 282°
2026-05-06 00:52 21.70848 53.55096 35774 ft 450 kts 282°
2026-05-06 00:52 21.72344 53.48567 35774 ft 450 kts 282°
2026-05-06 00:53 21.73836 53.42041 35771 ft 449 kts 282°
2026-05-06 00:53 21.75324 53.35516 35775 ft 449 kts 282°
2026-05-06 00:54 21.76810 53.28990 35772 ft 449 kts 282°
2026-05-06 00:54 21.78293 53.22466 35775 ft 449 kts 282°
2026-05-06 00:55 21.79773 53.15941 35781 ft 449 kts 282°
2026-05-06 00:55 21.81251 53.09412 35783 ft 449 kts 282°
2026-05-06 00:56 21.82725 53.02889 35771 ft 448 kts 282°
2026-05-06 00:56 21.84195 52.96371 35773 ft 448 kts 282°
2026-05-06 00:57 21.85662 52.89855 35779 ft 448 kts 282°
2026-05-06 00:57 21.87125 52.83339 35774 ft 448 kts 282°
2026-05-06 00:58 21.88586 52.76825 35773 ft 448 kts 282°
2026-05-06 00:58 21.90044 52.70307 35771 ft 448 kts 281°
2026-05-06 00:59 21.91333 52.63755 35777 ft 447 kts 279°
2026-05-06 00:59 21.92504 52.57177 35784 ft 447 kts 279°
2026-05-06 01:00 21.93679 52.50604 35773 ft 447 kts 279°
2026-05-06 01:00 21.94873 52.44037 35778 ft 447 kts 279°
2026-05-06 01:01 21.96072 52.37476 35779 ft 446 kts 279°
2026-05-06 01:01 21.97271 52.30914 35772 ft 446 kts 279°
2026-05-06 01:02 21.98459 52.24395 35781 ft 446 kts 279°
2026-05-06 01:02 21.99652 52.17835 35775 ft 446 kts 279°
2026-05-06 01:03 22.00841 52.11273 35773 ft 446 kts 279°
2026-05-06 01:03 22.02028 52.04712 35772 ft 446 kts 279°
2026-05-06 01:04 22.03213 51.98147 35789 ft 446 kts 279°
2026-05-06 01:04 22.04392 51.91594 35770 ft 445 kts 279°
2026-05-06 01:05 22.05569 51.85043 35778 ft 445 kts 279°
2026-05-06 01:05 22.06742 51.78493 35773 ft 445 kts 279°
2026-05-06 01:06 22.07913 51.71946 35776 ft 445 kts 279°
2026-05-06 01:06 22.09079 51.65403 35777 ft 444 kts 279°
2026-05-06 01:07 22.10243 51.58860 35781 ft 444 kts 278°
2026-05-06 01:07 22.11404 51.52315 35777 ft 445 kts 278°
2026-05-06 01:08 22.12565 51.45760 35777 ft 445 kts 278°
2026-05-06 01:08 22.13722 51.39208 35780 ft 445 kts 278°
2026-05-06 01:09 22.14876 51.32655 35778 ft 445 kts 278°
2026-05-06 01:09 22.16028 51.26103 35779 ft 444 kts 278°
2026-05-06 01:10 22.17176 51.19550 35775 ft 444 kts 278°
2026-05-06 01:10 22.18322 51.13000 35777 ft 444 kts 278°
2026-05-06 01:11 22.19466 51.06443 35774 ft 445 kts 278°
2026-05-06 01:11 22.20606 50.99890 35776 ft 445 kts 278°
2026-05-06 01:12 22.21745 50.93329 35782 ft 445 kts 278°
2026-05-06 01:12 22.22880 50.86774 35782 ft 445 kts 278°
2026-05-06 01:13 22.24013 50.80216 35777 ft 444 kts 278°
2026-05-06 01:13 22.25143 50.73659 35777 ft 444 kts 278°
2026-05-06 01:14 22.26832 50.63826 35780 ft 444 kts 278°
2026-05-06 01:14 22.27955 50.57270 35779 ft 444 kts 278°
2026-05-06 01:15 22.29075 50.50712 35780 ft 444 kts 278°
2026-05-06 01:15 22.30185 50.44196 35782 ft 444 kts 278°
2026-05-06 01:16 22.31300 50.37635 35779 ft 444 kts 278°
2026-05-06 01:16 22.32413 50.31069 35794 ft 444 kts 278°
2026-05-06 01:17 22.33523 50.24505 35785 ft 444 kts 278°
2026-05-06 01:17 22.34630 50.17945 35792 ft 444 kts 278°
2026-05-06 01:18 22.35733 50.11386 35791 ft 444 kts 278°
2026-05-06 01:18 22.36833 50.04829 35792 ft 443 kts 278°
2026-05-06 01:19 22.37931 49.98274 35789 ft 443 kts 278°
2026-05-06 01:19 22.39025 49.91718 35788 ft 443 kts 278°
2026-05-06 01:20 22.40117 49.85163 35792 ft 443 kts 278°
2026-05-06 01:20 22.41206 49.78602 35790 ft 443 kts 277°
2026-05-06 01:21 22.42293 49.72040 35791 ft 444 kts 277°
2026-05-06 01:21 22.43378 49.65474 35797 ft 444 kts 277°
2026-05-06 01:22 22.44461 49.58903 35793 ft 444 kts 277°
2026-05-06 01:22 22.45542 49.52325 35798 ft 444 kts 277°
2026-05-06 01:23 22.46622 49.45742 35796 ft 445 kts 277°
2026-05-06 01:23 22.47698 49.39158 35794 ft 445 kts 277°
2026-05-06 01:24 22.48772 49.32572 35794 ft 445 kts 277°
2026-05-06 01:24 22.49844 49.25981 35792 ft 445 kts 277°
2026-05-06 01:25 22.50913 49.19393 35799 ft 445 kts 277°
2026-05-06 01:25 22.51980 49.12800 35796 ft 444 kts 277°
2026-05-06 01:26 22.53042 49.06218 35793 ft 444 kts 277°
2026-05-06 01:26 22.54101 48.99637 35797 ft 444 kts 277°
2026-05-06 01:27 22.55156 48.93060 35796 ft 444 kts 277°
2026-05-06 01:27 22.56210 48.86476 35799 ft 444 kts 277°
2026-05-06 01:28 22.57261 48.79893 35803 ft 444 kts 277°
2026-05-06 01:28 22.58309 48.73309 35811 ft 444 kts 277°
2026-05-06 01:29 22.59355 48.66722 35805 ft 444 kts 277°
2026-05-06 01:29 22.60389 48.60191 35808 ft 443 kts 277°
2026-05-06 01:30 22.61426 48.53624 35810 ft 442 kts 277°
2026-05-06 01:30 22.62459 48.47062 35810 ft 442 kts 277°
2026-05-06 01:31 22.63488 48.40507 35813 ft 442 kts 277°
2026-05-06 01:31 22.64514 48.33956 35813 ft 441 kts 277°
2026-05-06 01:32 22.65537 48.27407 35817 ft 441 kts 277°
2026-05-06 01:32 22.66557 48.20859 35831 ft 441 kts 277°
2026-05-06 01:33 22.67580 48.14273 35821 ft 440 kts 277°
2026-05-06 01:33 22.68585 48.07787 35818 ft 439 kts 277°
2026-05-06 01:34 22.69478 48.01255 35821 ft 437 kts 273°
2026-05-06 01:34 22.70024 47.94706 35822 ft 437 kts 272°
2026-05-06 01:35 22.70527 47.88153 35826 ft 437 kts 272°
2026-05-06 01:35 22.71051 47.81598 35829 ft 437 kts 272°
2026-05-06 01:36 22.71588 47.75044 35830 ft 437 kts 272°
2026-05-06 01:36 22.72127 47.68483 35836 ft 437 kts 272°
2026-05-06 01:37 22.72573 47.63027 35849 ft 437 kts 272°
2026-05-06 01:37 22.73106 47.56464 35824 ft 438 kts 272°
2026-05-06 01:38 22.73638 47.49891 35845 ft 438 kts 272°
2026-05-06 01:38 22.74167 47.43306 35847 ft 439 kts 272°
2026-05-06 01:39 22.74694 47.36713 35852 ft 440 kts 272°
2026-05-06 01:39 22.75220 47.30111 35854 ft 440 kts 272°
2026-05-06 01:40 22.75743 47.23500 35857 ft 441 kts 272°
2026-05-06 01:40 22.76265 47.16880 35869 ft 441 kts 272°
2026-05-06 01:41 22.76794 47.10261 35864 ft 441 kts 272°
2026-05-06 01:41 22.77324 47.03647 35870 ft 440 kts 272°
2026-05-06 01:42 22.77849 46.97044 35874 ft 439 kts 272°
2026-05-06 01:42 22.78369 46.90463 35863 ft 438 kts 272°
2026-05-06 01:43 22.78885 46.83895 35874 ft 437 kts 272°
2026-05-06 01:43 22.79396 46.77347 35868 ft 436 kts 272°
2026-05-06 01:44 22.79904 46.70811 35874 ft 435 kts 271°
2026-05-06 01:44 22.80409 46.64278 35881 ft 435 kts 271°
2026-05-06 01:45 22.80911 46.57748 35880 ft 435 kts 271°
2026-05-06 01:45 22.81410 46.51218 35889 ft 435 kts 271°
2026-05-06 01:46 22.81907 46.44691 35905 ft 435 kts 271°
2026-05-06 01:46 22.82401 46.38160 35892 ft 434 kts 271°
2026-05-06 01:47 22.82885 46.31647 35897 ft 433 kts 271°
2026-05-06 01:47 22.83363 46.25133 35891 ft 433 kts 271°
2026-05-06 01:48 22.83839 46.18630 35897 ft 433 kts 271°
2026-05-06 01:48 22.84313 46.12125 35894 ft 433 kts 271°
2026-05-06 01:49 22.84785 46.05611 35895 ft 434 kts 271°
2026-05-06 01:49 22.85256 45.99086 35879 ft 434 kts 271°
2026-05-06 01:50 22.85723 45.92559 35901 ft 434 kts 271°
2026-05-06 01:50 22.86189 45.86028 35879 ft 434 kts 271°
2026-05-06 01:51 22.86626 45.79857 35867 ft 434 kts 271°
2026-05-06 01:51 22.87085 45.73339 35869 ft 433 kts 271°
2026-05-06 01:52 22.87542 45.66826 35868 ft 433 kts 271°
2026-05-06 01:52 22.87995 45.60310 35867 ft 433 kts 271°
2026-05-06 01:53 22.88446 45.53798 35868 ft 433 kts 271°
2026-05-06 01:53 22.88894 45.47288 35873 ft 433 kts 271°
2026-05-06 01:54 22.89336 45.40820 35877 ft 433 kts 271°
2026-05-06 01:54 22.89779 45.34306 35888 ft 433 kts 270°
2026-05-06 01:55 22.90219 45.27792 35880 ft 433 kts 270°
2026-05-06 01:55 22.90656 45.21286 35881 ft 432 kts 270°
2026-05-06 01:56 22.91090 45.14787 35883 ft 432 kts 270°
2026-05-06 01:56 22.91521 45.08290 35888 ft 432 kts 270°
2026-05-06 01:57 22.91950 45.01795 35895 ft 432 kts 270°
2026-05-06 01:57 22.92376 44.95305 35898 ft 432 kts 270°
2026-05-06 01:58 22.92802 44.88797 35898 ft 433 kts 270°
2026-05-06 01:58 22.93224 44.82288 35908 ft 433 kts 270°
2026-05-06 01:59 22.93645 44.75767 35912 ft 434 kts 270°
2026-05-06 01:59 22.94072 44.69239 35912 ft 434 kts 272°
2026-05-06 02:00 22.95430 44.62815 35927 ft 441 kts 284°
2026-05-06 02:00 22.97424 44.56513 35925 ft 442 kts 284°
2026-05-06 02:01 22.99414 44.50209 35915 ft 441 kts 284°
2026-05-06 02:01 23.01371 44.43909 35920 ft 440 kts 283°
2026-05-06 02:02 23.03311 44.37611 35930 ft 439 kts 283°
2026-05-06 02:02 23.05241 44.31331 35919 ft 438 kts 283°
2026-05-06 02:03 23.07163 44.25069 35920 ft 437 kts 283°
2026-05-06 02:03 23.09077 44.18823 35935 ft 435 kts 283°
2026-05-06 02:04 23.10986 44.12583 35931 ft 435 kts 283°
2026-05-06 02:04 23.12888 44.06356 35941 ft 434 kts 283°
2026-05-06 02:05 23.14789 44.00125 35948 ft 434 kts 283°
2026-05-06 02:05 23.16685 43.93899 35941 ft 434 kts 283°
2026-05-06 02:06 23.18577 43.87678 35943 ft 434 kts 283°
2026-05-06 02:06 23.20452 43.81501 35968 ft 433 kts 283°
2026-05-06 02:07 23.22336 43.75287 35957 ft 433 kts 283°
2026-05-06 02:07 23.24216 43.69072 35963 ft 432 kts 283°
2026-05-06 02:08 23.26093 43.62862 35985 ft 432 kts 283°
2026-05-06 02:08 23.27966 43.56656 35978 ft 431 kts 282°
2026-05-06 02:09 23.29829 43.50461 35982 ft 430 kts 282°
2026-05-06 02:09 23.31685 43.44280 35983 ft 430 kts 282°
2026-05-06 02:10 23.33535 43.38104 35992 ft 429 kts 282°
2026-05-06 02:10 23.35380 43.31939 35998 ft 428 kts 282°
2026-05-06 02:11 23.37220 43.25779 36003 ft 428 kts 282°
2026-05-06 02:11 23.39057 43.19620 36010 ft 428 kts 282°
2026-05-06 02:12 23.40892 43.13458 36005 ft 428 kts 282°
2026-05-06 02:12 23.42719 43.07287 36013 ft 428 kts 282°
2026-05-06 02:13 23.44540 43.01114 36027 ft 428 kts 282°
2026-05-06 02:13 23.46360 42.94940 36016 ft 428 kts 281°
2026-05-06 02:14 23.48175 42.88773 36016 ft 427 kts 281°
2026-05-06 02:14 23.49986 42.82611 36012 ft 427 kts 281°
2026-05-06 02:15 23.51793 42.76451 36009 ft 427 kts 281°
2026-05-06 02:15 23.53607 42.70291 36007 ft 427 kts 281°
2026-05-06 02:16 23.55426 42.64138 36011 ft 427 kts 281°
2026-05-06 02:16 23.57244 42.57975 36020 ft 427 kts 281°
2026-05-06 02:17 23.59056 42.51819 36008 ft 426 kts 281°
2026-05-06 02:17 23.60862 42.45669 36012 ft 426 kts 281°
2026-05-06 02:18 23.62665 42.39519 36024 ft 426 kts 281°
2026-05-06 02:18 23.64464 42.33372 36012 ft 425 kts 281°
2026-05-06 02:19 23.66259 42.27229 36006 ft 425 kts 281°
2026-05-06 02:19 23.68030 42.21088 36008 ft 424 kts 281°
2026-05-06 02:20 23.70677 42.11877 36013 ft 424 kts 281°
2026-05-06 02:21 23.72439 42.05743 36015 ft 423 kts 281°
2026-05-06 02:21 23.74196 41.99619 36002 ft 423 kts 281°
2026-05-06 02:22 23.75967 41.93498 36007 ft 423 kts 281°
2026-05-06 02:22 23.77746 41.87390 36015 ft 422 kts 281°
2026-05-06 02:23 23.79515 41.81298 36008 ft 421 kts 281°
2026-05-06 02:23 23.81278 41.75203 36016 ft 421 kts 280°
2026-05-06 02:24 23.83031 41.69102 36008 ft 421 kts 280°
2026-05-06 02:24 23.84770 41.63039 36010 ft 421 kts 280°
2026-05-06 02:25 23.86520 41.56932 36003 ft 421 kts 280°
2026-05-06 02:25 23.88266 41.50823 36008 ft 421 kts 280°
2026-05-06 02:26 23.90007 41.44714 36001 ft 421 kts 280°
2026-05-06 02:26 23.91747 41.38602 36003 ft 421 kts 280°
2026-05-06 02:27 23.93484 41.32493 36017 ft 421 kts 280°
2026-05-06 02:27 23.95215 41.26389 35999 ft 420 kts 280°
2026-05-06 02:28 23.96941 41.20293 35996 ft 419 kts 280°
2026-05-06 02:28 23.98661 41.14208 35994 ft 419 kts 280°
2026-05-06 02:29 24.00375 41.08129 35996 ft 418 kts 279°
2026-05-06 02:29 24.02085 41.02059 35992 ft 417 kts 279°
2026-05-06 02:30 24.03792 40.95990 35988 ft 417 kts 279°
2026-05-06 02:30 24.05494 40.89922 36003 ft 417 kts 279°
2026-05-06 02:31 24.07191 40.83860 35988 ft 417 kts 279°
2026-05-06 02:31 24.08885 40.77798 35988 ft 416 kts 279°
2026-05-06 02:32 24.10575 40.71740 35981 ft 416 kts 279°
2026-05-06 02:32 24.12262 40.65684 35982 ft 416 kts 279°
2026-05-06 02:33 24.13946 40.59627 35981 ft 416 kts 279°
2026-05-06 02:33 24.14503 40.57621 35981 ft 416 kts 279°
2026-05-06 02:34 24.17486 40.48648 35980 ft 427 kts 289°
2026-05-06 02:34 24.20275 40.42900 35990 ft 427 kts 289°
2026-05-06 02:35 24.23058 40.37156 35970 ft 427 kts 289°
2026-05-06 02:35 24.25818 40.31404 35977 ft 426 kts 289°
2026-05-06 02:36 24.28562 40.25656 35978 ft 425 kts 289°
2026-05-06 02:36 24.31297 40.19913 35979 ft 425 kts 288°
2026-05-06 02:37 24.34031 40.14167 35979 ft 424 kts 288°
2026-05-06 02:37 24.36757 40.08431 35991 ft 424 kts 288°
2026-05-06 02:38 24.39481 40.02693 36010 ft 424 kts 288°
2026-05-06 02:38 24.42200 39.96958 35982 ft 423 kts 288°
2026-05-06 02:39 24.44914 39.91228 35971 ft 423 kts 288°
2026-05-06 02:39 24.47621 39.85503 35969 ft 422 kts 288°
2026-05-06 02:40 24.50326 39.79776 35987 ft 423 kts 288°
2026-05-06 02:40 24.53029 39.74049 35974 ft 422 kts 288°
2026-05-06 02:41 24.55758 39.68332 35965 ft 424 kts 289°
2026-05-06 02:41 24.58706 39.62693 35965 ft 426 kts 291°
2026-05-06 02:42 24.61705 39.57075 35973 ft 426 kts 290°
2026-05-06 02:42 24.64684 39.51439 35991 ft 426 kts 290°
2026-05-06 02:43 24.67643 39.45795 35976 ft 426 kts 290°
2026-05-06 02:43 24.70589 39.40153 35965 ft 425 kts 290°
2026-05-06 02:44 24.73529 39.34513 35979 ft 425 kts 290°
2026-05-06 02:44 24.76465 39.28873 35966 ft 425 kts 290°
2026-05-06 02:45 24.79396 39.23237 35962 ft 424 kts 290°
2026-05-06 02:45 24.82324 39.17602 35961 ft 424 kts 290°
2026-05-06 02:46 24.85248 39.11966 35967 ft 424 kts 290°
2026-05-06 02:46 24.88169 39.06331 35961 ft 424 kts 290°
2026-05-06 02:47 24.91086 39.00696 35957 ft 423 kts 290°
2026-05-06 02:47 24.94000 38.95058 35952 ft 423 kts 290°
2026-05-06 02:48 24.96913 38.89416 35948 ft 423 kts 290°
2026-05-06 02:48 24.99824 38.83773 35951 ft 423 kts 290°
2026-05-06 02:49 25.02729 38.78134 35945 ft 423 kts 290°
2026-05-06 02:49 25.05630 38.72497 35940 ft 423 kts 290°
2026-05-06 02:50 25.08532 38.66848 35945 ft 424 kts 290°
2026-05-06 02:50 25.11418 38.61224 35951 ft 424 kts 290°
2026-05-06 02:51 25.14324 38.55557 35935 ft 425 kts 290°
2026-05-06 02:51 25.17249 38.49845 35936 ft 424 kts 290°
2026-05-06 02:52 25.20151 38.44172 35928 ft 424 kts 290°
2026-05-06 02:52 25.23047 38.38503 35925 ft 424 kts 290°
2026-05-06 02:53 25.25938 38.32837 35930 ft 423 kts 290°
2026-05-06 02:53 25.28827 38.27166 35925 ft 424 kts 290°
2026-05-06 02:54 25.31696 38.21529 35924 ft 424 kts 290°
2026-05-06 02:54 25.34581 38.15853 35914 ft 424 kts 290°
2026-05-06 02:55 25.37466 38.10169 35911 ft 424 kts 290°
2026-05-06 02:55 25.40348 38.04487 35912 ft 424 kts 290°
2026-05-06 02:56 25.43226 37.98804 35921 ft 423 kts 290°
2026-05-06 02:56 25.46099 37.93122 35937 ft 423 kts 290°
2026-05-06 02:57 25.48974 37.87430 35933 ft 424 kts 290°
2026-05-06 02:57 25.51849 37.81733 35929 ft 424 kts 290°
2026-05-06 02:58 25.54720 37.76036 35945 ft 424 kts 290°
2026-05-06 02:58 25.57591 37.70330 35965 ft 424 kts 290°
2026-05-06 02:59 25.60460 37.64623 35953 ft 425 kts 290°
2026-05-06 02:59 25.63331 37.58904 35947 ft 424 kts 290°
2026-05-06 03:00 25.66214 37.53157 35949 ft 424 kts 290°
2026-05-06 03:00 25.69072 37.47450 35984 ft 423 kts 290°
2026-05-06 03:01 25.71904 37.41787 35959 ft 423 kts 290°
2026-05-06 03:01 25.74753 37.36082 35958 ft 423 kts 290°
2026-05-06 03:02 25.77596 37.30385 35938 ft 422 kts 290°
2026-05-06 03:02 25.80432 37.24693 35920 ft 421 kts 290°
2026-05-06 03:03 25.83264 37.19001 35930 ft 421 kts 290°
2026-05-06 03:03 25.86092 37.13311 35925 ft 421 kts 290°
2026-05-06 03:04 25.88914 37.07625 35928 ft 420 kts 290°
2026-05-06 03:04 25.91731 37.01943 35926 ft 420 kts 290°
2026-05-06 03:05 25.94545 36.96258 35936 ft 420 kts 290°
2026-05-06 03:05 25.97359 36.90567 35924 ft 420 kts 290°
2026-05-06 03:06 26.00168 36.84879 35929 ft 420 kts 290°
2026-05-06 03:06 26.02975 36.79188 35922 ft 420 kts 290°
2026-05-06 03:07 26.05777 36.73499 35942 ft 420 kts 290°
2026-05-06 03:07 26.08581 36.67798 35930 ft 420 kts 290°
2026-05-06 03:08 26.11389 36.62084 35916 ft 421 kts 290°
2026-05-06 03:08 26.14192 36.56371 35918 ft 421 kts 290°
2026-05-06 03:09 26.17011 36.50653 35937 ft 423 kts 292°
2026-05-06 03:09 26.20722 36.45409 35949 ft 440 kts 304°
2026-05-06 03:10 26.25015 36.40536 35942 ft 441 kts 304°
2026-05-06 03:10 26.29306 36.35664 35969 ft 440 kts 304°
2026-05-06 03:11 26.33578 36.30763 35941 ft 440 kts 304°
2026-05-06 03:11 26.37834 36.25853 35925 ft 440 kts 304°
2026-05-06 03:12 26.42086 36.20939 35930 ft 440 kts 304°
2026-05-06 03:12 26.46330 36.16029 35922 ft 440 kts 304°
2026-05-06 03:13 26.50573 36.11116 35923 ft 439 kts 304°
2026-05-06 03:13 26.54809 36.06206 35924 ft 439 kts 304°
2026-05-06 03:14 26.59045 36.01290 35930 ft 439 kts 304°
2026-05-06 03:14 26.63276 35.96373 35929 ft 439 kts 304°
2026-05-06 03:15 26.67505 35.91453 35942 ft 439 kts 304°
2026-05-06 03:15 26.71735 35.86527 35936 ft 439 kts 304°
2026-05-06 03:16 26.75250 35.82428 35931 ft 439 kts 304°
2026-05-06 03:16 26.79478 35.77496 35934 ft 439 kts 304°
2026-05-06 03:17 26.83705 35.72558 35943 ft 439 kts 304°
2026-05-06 03:17 26.87933 35.67615 35942 ft 440 kts 304°
2026-05-06 03:18 26.92159 35.62667 35940 ft 440 kts 304°
2026-05-06 03:18 26.96386 35.57712 35941 ft 440 kts 304°
2026-05-06 03:19 27.00613 35.52751 35951 ft 440 kts 304°
2026-05-06 03:19 27.04838 35.47786 35965 ft 441 kts 304°
2026-05-06 03:20 27.11183 35.40320 35948 ft 441 kts 304°
2026-05-06 03:20 27.15408 35.35342 35951 ft 440 kts 304°
2026-05-06 03:21 27.19629 35.30361 35956 ft 440 kts 304°
2026-05-06 03:21 27.23848 35.25377 35956 ft 440 kts 304°
2026-05-06 03:22 27.28063 35.20393 35962 ft 440 kts 305°
2026-05-06 03:22 27.32277 35.15404 35958 ft 440 kts 305°
2026-05-06 03:23 27.36487 35.10413 35967 ft 440 kts 305°
2026-05-06 03:23 27.40692 35.05421 36005 ft 439 kts 305°
2026-05-06 03:24 27.44899 35.00421 35986 ft 440 kts 305°
2026-05-06 03:24 27.49102 34.95421 35982 ft 440 kts 305°
2026-05-06 03:25 27.53381 34.90484 35970 ft 443 kts 308°
2026-05-06 03:25 27.57892 34.85741 35975 ft 444 kts 309°
2026-05-06 03:26 27.62427 34.81021 35978 ft 443 kts 309°
2026-05-06 03:26 27.66936 34.76275 35977 ft 443 kts 308°
2026-05-06 03:27 27.71429 34.71513 35990 ft 443 kts 309°
2026-05-06 03:27 27.75916 34.66747 35979 ft 443 kts 309°
2026-05-06 03:28 27.80410 34.61970 35996 ft 444 kts 309°
2026-05-06 03:28 27.84900 34.57191 35991 ft 444 kts 309°
2026-05-06 03:29 27.89363 34.52437 35991 ft 444 kts 309°
2026-05-06 03:29 27.93851 34.47650 35995 ft 443 kts 309°
2026-05-06 03:30 27.98365 34.42833 35999 ft 443 kts 309°
2026-05-06 03:30 28.02528 34.37774 36001 ft 436 kts 302°
2026-05-06 03:31 28.06321 34.32442 36002 ft 434 kts 302°
2026-05-06 03:31 28.10077 34.27139 36005 ft 434 kts 302°
2026-05-06 03:32 28.13891 34.21816 36029 ft 435 kts 302°
2026-05-06 03:32 28.17722 34.16497 36009 ft 436 kts 303°
2026-05-06 03:33 28.21551 34.11182 36016 ft 435 kts 303°
2026-05-06 03:33 28.25379 34.05861 36025 ft 435 kts 303°
2026-05-06 03:34 28.29201 34.00539 36022 ft 434 kts 303°
2026-05-06 03:34 28.33015 33.95223 36049 ft 434 kts 303°
2026-05-06 03:35 28.36829 33.89896 36032 ft 435 kts 303°
2026-05-06 03:35 28.40652 33.84552 36036 ft 436 kts 303°
2026-05-06 03:36 28.44474 33.79204 36031 ft 436 kts 303°
2026-05-06 03:36 28.48285 33.73862 36025 ft 435 kts 303°
2026-05-06 03:37 28.52096 33.68516 36034 ft 434 kts 303°
2026-05-06 03:37 28.55898 33.63171 36025 ft 434 kts 303°
2026-05-06 03:38 28.59686 33.57835 36047 ft 434 kts 303°
2026-05-06 03:38 28.63480 33.52485 36038 ft 434 kts 303°
2026-05-06 03:39 28.67278 33.47134 36050 ft 435 kts 303°
2026-05-06 03:39 28.71077 33.41778 36041 ft 434 kts 303°
2026-05-06 03:40 28.74868 33.36425 36048 ft 434 kts 303°
2026-05-06 03:40 28.78655 33.31069 36052 ft 434 kts 303°
2026-05-06 03:41 28.82442 33.25706 36063 ft 434 kts 303°
2026-05-06 03:41 28.86225 33.20342 36071 ft 434 kts 303°
2026-05-06 03:42 28.90007 33.14971 36074 ft 434 kts 303°
2026-05-06 03:42 28.93783 33.09605 36062 ft 433 kts 303°
2026-05-06 03:43 28.97548 33.04245 36071 ft 432 kts 303°
2026-05-06 03:43 29.01302 32.98893 36070 ft 431 kts 303°
2026-05-06 03:44 29.05051 32.93543 36077 ft 431 kts 303°
2026-05-06 03:44 29.08796 32.88191 36082 ft 431 kts 303°
2026-05-06 03:45 29.12538 32.82835 36078 ft 431 kts 303°
2026-05-06 03:45 29.16277 32.77478 36081 ft 431 kts 303°
2026-05-06 03:46 29.20011 32.72121 36079 ft 431 kts 303°
2026-05-06 03:46 29.23744 32.66758 36080 ft 431 kts 303°
2026-05-06 03:47 29.27477 32.61388 36099 ft 431 kts 303°
2026-05-06 03:47 29.31191 32.56013 36088 ft 430 kts 303°
2026-05-06 03:48 29.34886 32.50623 36106 ft 430 kts 303°
2026-05-06 03:48 29.38578 32.45229 36093 ft 430 kts 303°
2026-05-06 03:49 29.42268 32.39834 36091 ft 430 kts 303°
2026-05-06 03:49 29.45957 32.34437 36096 ft 429 kts 303°
2026-05-06 03:50 29.49641 32.29039 36100 ft 430 kts 303°
2026-05-06 03:50 29.53324 32.23636 36091 ft 430 kts 303°
2026-05-06 03:51 29.57009 32.18223 36101 ft 430 kts 303°
2026-05-06 03:51 29.60692 32.12804 36094 ft 430 kts 303°
2026-05-06 03:52 29.64373 32.07383 36104 ft 430 kts 303°
2026-05-06 03:52 29.68053 32.01956 36095 ft 431 kts 303°
2026-05-06 03:53 29.71733 31.96521 36098 ft 431 kts 303°
2026-05-06 03:53 29.75389 31.91113 36123 ft 431 kts 303°
2026-05-06 03:54 29.79060 31.85664 36108 ft 430 kts 302°
2026-05-06 03:54 29.82620 31.80140 36088 ft 429 kts 302°
2026-05-06 03:55 29.86157 31.74611 36089 ft 428 kts 302°
2026-05-06 03:55 29.89865 31.69237 36068 ft 434 kts 314°
2026-05-06 03:56 29.95149 31.65692 36081 ft 451 kts 336°
2026-05-06 03:56 30.01403 31.64336 36086 ft 460 kts 345°
2026-05-06 03:57 30.07749 31.63311 36122 ft 461 kts 345°
2026-05-06 03:57 30.14093 31.62240 36085 ft 460 kts 345°
2026-05-06 03:58 30.20424 31.61116 36075 ft 460 kts 345°
2026-05-06 03:58 30.26743 31.59977 36083 ft 459 kts 345°
2026-05-06 03:59 30.31993 31.59028 36083 ft 459 kts 345°
2026-05-06 03:59 30.38306 31.57887 36089 ft 459 kts 344°
2026-05-06 04:00 30.44619 31.56747 36085 ft 459 kts 344°
2026-05-06 04:00 30.50930 31.55605 36091 ft 459 kts 344°
2026-05-06 04:01 30.57239 31.54462 36088 ft 459 kts 344°
2026-05-06 04:01 30.63549 31.53318 36093 ft 459 kts 344°
2026-05-06 04:02 30.69852 31.52173 36093 ft 458 kts 344°
2026-05-06 04:02 30.76149 31.51028 36089 ft 458 kts 344°
2026-05-06 04:03 30.82435 31.49887 36087 ft 457 kts 344°
2026-05-06 04:03 30.88719 31.48745 36092 ft 456 kts 345°
2026-05-06 04:04 30.94980 31.47606 36086 ft 455 kts 345°
2026-05-06 04:04 31.01237 31.46465 36095 ft 454 kts 345°
2026-05-06 04:05 31.07482 31.45325 36088 ft 454 kts 345°
2026-05-06 04:05 31.13725 31.44183 36099 ft 454 kts 345°
2026-05-06 04:06 31.19965 31.43041 36091 ft 454 kts 345°
2026-05-06 04:06 31.26196 31.41899 36091 ft 453 kts 345°
2026-05-06 04:07 31.32418 31.40737 36092 ft 453 kts 345°
2026-05-06 04:07 31.38636 31.39569 36086 ft 452 kts 345°
2026-05-06 04:08 31.44824 31.38407 36087 ft 450 kts 345°
2026-05-06 04:08 31.50993 31.37248 36092 ft 448 kts 345°
2026-05-06 04:09 31.57165 31.36156 36089 ft 450 kts 347°
2026-05-06 04:09 31.63407 31.35501 36092 ft 451 kts 349°
2026-05-06 04:10 31.69655 31.34931 36089 ft 450 kts 349°
2026-05-06 04:10 31.75881 31.34310 36088 ft 449 kts 348°
2026-05-06 04:11 31.82097 31.33666 36091 ft 448 kts 348°
2026-05-06 04:11 31.88314 31.33022 36091 ft 448 kts 348°
2026-05-06 04:12 31.94527 31.32372 36087 ft 448 kts 348°
2026-05-06 04:12 32.00741 31.31720 36090 ft 449 kts 348°
2026-05-06 04:13 32.06964 31.31068 36119 ft 449 kts 348°
2026-05-06 04:13 32.13195 31.30418 36097 ft 450 kts 348°
2026-05-06 04:14 32.19426 31.29765 36089 ft 450 kts 348°
2026-05-06 04:14 32.25661 31.29091 36086 ft 450 kts 348°
2026-05-06 04:15 32.31888 31.28414 36111 ft 449 kts 348°
2026-05-06 04:15 32.38116 31.27739 36085 ft 449 kts 348°
2026-05-06 04:16 32.44334 31.27065 36082 ft 448 kts 348°
2026-05-06 04:16 32.50537 31.26391 36083 ft 447 kts 348°
2026-05-06 04:17 32.56698 31.25542 36089 ft 441 kts 340°
2026-05-06 04:17 32.62339 31.23083 36089 ft 427 kts 328°
2026-05-06 04:18 32.67651 31.19921 36075 ft 427 kts 327°
2026-05-06 04:18 32.72965 31.16767 36075 ft 427 kts 328°
2026-05-06 04:19 32.78286 31.13641 36074 ft 427 kts 328°
2026-05-06 04:19 32.83614 31.10520 36099 ft 427 kts 328°
2026-05-06 04:20 32.88946 31.07393 36079 ft 427 kts 328°
2026-05-06 04:20 32.94275 31.04264 36068 ft 427 kts 328°
2026-05-06 04:21 32.99596 31.01134 36068 ft 427 kts 328°
2026-05-06 04:21 33.04916 30.98000 36072 ft 426 kts 328°
2026-05-06 04:22 33.10233 30.94853 36094 ft 426 kts 327°
2026-05-06 04:23 33.17900 30.89661 36072 ft 424 kts 324°
2026-05-06 04:23 33.22983 30.86099 36064 ft 424 kts 324°
2026-05-06 04:24 33.28080 30.82554 36064 ft 424 kts 324°
2026-05-06 04:24 33.33184 30.79020 36066 ft 424 kts 324°
2026-05-06 04:25 33.38288 30.75488 36093 ft 424 kts 324°
2026-05-06 04:25 33.43393 30.71951 36073 ft 424 kts 324°
2026-05-06 04:26 33.48496 30.68411 36063 ft 424 kts 324°
2026-05-06 04:26 33.53591 30.64871 36065 ft 423 kts 324°
2026-05-06 04:27 33.58684 30.61326 36066 ft 423 kts 324°
2026-05-06 04:27 33.63774 30.57780 36065 ft 423 kts 324°
2026-05-06 04:28 33.68863 30.54228 36064 ft 424 kts 324°
2026-05-06 04:28 33.73954 30.50671 36062 ft 424 kts 324°
2026-05-06 04:29 33.79053 30.47102 36145 ft 425 kts 324°
2026-05-06 04:29 33.81605 30.45315 36363 ft 424 kts 324°
2026-05-06 04:29 33.84153 30.43530 36594 ft 423 kts 324°
2026-05-06 04:29 33.86696 30.41746 36799 ft 423 kts 324°
2026-05-06 04:30 33.89244 30.39957 36950 ft 425 kts 324°
2026-05-06 04:30 33.91800 30.38161 37118 ft 425 kts 324°
2026-05-06 04:30 33.94356 30.36364 37309 ft 426 kts 325°
2026-05-06 04:30 33.96923 30.34558 37440 ft 427 kts 325°
2026-05-06 04:31 33.99487 30.32753 37604 ft 428 kts 325°
2026-05-06 04:31 34.02058 30.30943 37780 ft 428 kts 325°
2026-05-06 04:31 34.04629 30.29130 37923 ft 429 kts 325°
2026-05-06 04:31 34.07209 30.27311 38031 ft 430 kts 325°
2026-05-06 04:32 34.09793 30.25486 38055 ft 432 kts 325°
2026-05-06 04:32 34.14968 30.21830 38051 ft 429 kts 325°
2026-05-06 04:33 34.20111 30.18192 38057 ft 428 kts 325°
2026-05-06 04:33 34.25202 30.14583 38058 ft 427 kts 325°
2026-05-06 04:34 34.30322 30.10948 38060 ft 426 kts 325°
2026-05-06 04:34 34.35423 30.07322 38055 ft 426 kts 325°
2026-05-06 04:35 34.40526 30.03690 38053 ft 425 kts 325°
2026-05-06 04:35 34.45551 29.99934 38039 ft 422 kts 319°
2026-05-06 04:36 34.49783 29.95094 38050 ft 418 kts 311°
2026-05-06 04:36 34.53835 29.90026 38055 ft 419 kts 311°
2026-05-06 04:37 34.57901 29.84967 38047 ft 419 kts 311°
2026-05-06 04:37 34.61987 29.79905 38049 ft 419 kts 312°
2026-05-06 04:38 34.66068 29.74851 38043 ft 419 kts 312°
2026-05-06 04:38 34.70148 29.69790 38052 ft 419 kts 312°
2026-05-06 04:39 34.74224 29.64727 38053 ft 419 kts 311°
2026-05-06 04:39 34.78296 29.59660 38051 ft 419 kts 311°
2026-05-06 04:40 34.82369 29.54585 38053 ft 419 kts 311°
2026-05-06 04:40 34.86441 29.49503 38039 ft 419 kts 312°
2026-05-06 04:41 34.90509 29.44418 38050 ft 419 kts 312°
2026-05-06 04:41 34.94581 29.39320 38050 ft 420 kts 312°
2026-05-06 04:42 34.98657 29.34218 38046 ft 420 kts 313°
2026-05-06 04:42 35.03221 29.29716 38050 ft 423 kts 320°
2026-05-06 04:43 35.07968 29.25451 38232 ft 424 kts 320°
2026-05-06 04:43 35.09536 29.24039 38384 ft 422 kts 321°
2026-05-06 04:43 35.11889 29.21912 38652 ft 420 kts 320°
2026-05-06 04:43 35.14233 29.19784 38848 ft 420 kts 320°
2026-05-06 04:44 35.16575 29.17649 38991 ft 421 kts 321°
2026-05-06 04:44 35.21280 29.13344 39178 ft 423 kts 321°
2026-05-06 04:45 35.25998 29.09018 39412 ft 424 kts 321°
2026-05-06 04:45 35.28362 29.06849 39550 ft 424 kts 320°
2026-05-06 04:45 35.30725 29.04679 39659 ft 425 kts 320°
2026-05-06 04:45 35.33090 29.02505 39772 ft 425 kts 320°
2026-05-06 04:46 35.35453 29.00331 39895 ft 425 kts 320°
2026-05-06 04:46 35.37818 28.98155 40003 ft 425 kts 320°
2026-05-06 04:46 35.40184 28.95976 40041 ft 427 kts 320°
2026-05-06 04:47 35.44932 28.91597 40064 ft 426 kts 320°
2026-05-06 04:47 35.49655 28.87236 40052 ft 424 kts 321°
2026-05-06 04:48 35.54364 28.82881 40051 ft 423 kts 321°
2026-05-06 04:48 35.59069 28.78522 40052 ft 423 kts 321°
2026-05-06 04:49 35.63763 28.74167 40053 ft 423 kts 321°
2026-05-06 04:49 35.68453 28.69808 40053 ft 423 kts 321°
2026-05-06 04:50 35.73144 28.65443 40059 ft 423 kts 321°
2026-05-06 04:50 35.77836 28.61071 40060 ft 422 kts 321°
2026-05-06 04:51 35.82516 28.56703 40050 ft 422 kts 321°
2026-05-06 04:51 35.87192 28.52332 40054 ft 421 kts 321°
2026-05-06 04:52 35.91826 28.47993 40053 ft 421 kts 321°
2026-05-06 04:52 35.96469 28.43640 40058 ft 421 kts 321°
2026-05-06 04:53 36.01131 28.39262 40054 ft 421 kts 321°
2026-05-06 04:53 36.05789 28.34881 40056 ft 421 kts 321°
2026-05-06 04:54 36.10444 28.30496 40043 ft 420 kts 321°
2026-05-06 04:54 36.15089 28.26114 40043 ft 419 kts 321°
2026-05-06 04:55 36.19724 28.21734 40043 ft 419 kts 321°
2026-05-06 04:55 36.24351 28.17356 40043 ft 419 kts 321°
2026-05-06 04:56 36.28976 28.12972 40037 ft 418 kts 321°
2026-05-06 04:56 36.33599 28.08582 40033 ft 418 kts 320°
2026-05-06 04:57 36.37945 28.03803 40022 ft 417 kts 316°
2026-05-06 04:57 36.42170 27.98861 40018 ft 417 kts 316°
2026-05-06 04:58 36.46393 27.93925 40027 ft 417 kts 316°
2026-05-06 04:58 36.50628 27.89001 40029 ft 417 kts 316°
2026-05-06 04:59 36.54869 27.84081 40030 ft 417 kts 316°
2026-05-06 04:59 36.59106 27.79160 40048 ft 417 kts 316°
2026-05-06 05:00 36.63346 27.74229 40071 ft 417 kts 316°
2026-05-06 05:00 36.67581 27.69295 40063 ft 417 kts 316°
2026-05-06 05:01 36.71817 27.64352 40056 ft 417 kts 316°
2026-05-06 05:01 36.76052 27.59403 40065 ft 417 kts 316°
2026-05-06 05:02 36.80284 27.54448 40060 ft 417 kts 316°
2026-05-06 05:02 36.84514 27.49489 40066 ft 417 kts 316°
2026-05-06 05:03 36.88738 27.44528 40078 ft 416 kts 316°
2026-05-06 05:03 36.92952 27.39571 40073 ft 416 kts 316°
2026-05-06 05:04 36.97161 27.34612 40081 ft 416 kts 316°
2026-05-06 05:04 37.01368 27.29648 40082 ft 416 kts 316°
2026-05-06 05:05 37.05570 27.24682 40087 ft 416 kts 316°
2026-05-06 05:05 37.09744 27.19740 40082 ft 416 kts 316°
2026-05-06 05:06 37.13970 27.14729 40080 ft 415 kts 315°
2026-05-06 05:06 37.18131 27.09788 40083 ft 415 kts 315°
2026-05-06 05:07 37.22314 27.04812 40089 ft 414 kts 315°
2026-05-06 05:07 37.26496 26.99829 40085 ft 415 kts 315°
2026-05-06 05:08 37.30684 26.94830 40090 ft 415 kts 315°
2026-05-06 05:08 37.34874 26.89821 40086 ft 416 kts 315°
2026-05-06 05:09 37.39065 26.84805 40075 ft 416 kts 315°
2026-05-06 05:09 37.43383 26.79944 40085 ft 417 kts 318°
2026-05-06 05:10 37.47816 26.75234 40084 ft 417 kts 319°
2026-05-06 05:10 37.52245 26.70500 40082 ft 418 kts 318°
2026-05-06 05:11 37.56661 26.65738 40080 ft 418 kts 318°
2026-05-06 05:11 37.61071 26.60962 40085 ft 418 kts 318°
2026-05-06 05:12 37.65480 26.56181 40073 ft 418 kts 318°
2026-05-06 05:12 37.69886 26.51396 40084 ft 417 kts 318°
2026-05-06 05:13 37.74277 26.46602 40085 ft 417 kts 318°
2026-05-06 05:13 37.78666 26.41800 40088 ft 417 kts 318°
2026-05-06 05:14 37.83052 26.36995 40104 ft 417 kts 318°
2026-05-06 05:14 37.87439 26.32183 40094 ft 418 kts 318°
2026-05-06 05:15 37.91841 26.27365 40089 ft 418 kts 318°
2026-05-06 05:15 37.96238 26.22546 40086 ft 418 kts 318°
2026-05-06 05:16 38.00632 26.17720 40087 ft 418 kts 318°
2026-05-06 05:16 38.05027 26.12885 40085 ft 418 kts 318°
2026-05-06 05:17 38.09419 26.08047 40085 ft 418 kts 318°
2026-05-06 05:17 38.13813 26.03202 40088 ft 419 kts 318°
2026-05-06 05:18 38.18210 25.98343 40081 ft 419 kts 318°
2026-05-06 05:18 38.22607 25.93476 40074 ft 419 kts 318°
2026-05-06 05:19 38.27064 25.88688 40084 ft 419 kts 321°
2026-05-06 05:19 38.31696 25.84180 40077 ft 419 kts 322°
2026-05-06 05:20 38.36357 25.79709 40080 ft 419 kts 322°
2026-05-06 05:20 38.41003 25.75214 40097 ft 419 kts 322°
2026-05-06 05:21 38.45640 25.70694 40082 ft 419 kts 322°
2026-05-06 05:21 38.50271 25.66163 40082 ft 420 kts 321°
2026-05-06 05:22 38.54868 25.61656 40071 ft 419 kts 321°
2026-05-06 05:22 38.59495 25.57113 40081 ft 419 kts 321°
2026-05-06 05:23 38.64119 25.52564 40074 ft 420 kts 321°
2026-05-06 05:23 38.71058 25.45725 40079 ft 420 kts 322°
2026-05-06 05:24 38.75686 25.41155 40076 ft 420 kts 322°
2026-05-06 05:24 38.80313 25.36577 40074 ft 420 kts 321°
2026-05-06 05:25 38.84940 25.31991 40063 ft 420 kts 321°
2026-05-06 05:25 38.89563 25.27403 40073 ft 420 kts 321°
2026-05-06 05:26 38.94184 25.22808 40074 ft 420 kts 321°
2026-05-06 05:26 38.98808 25.18202 40075 ft 420 kts 321°
2026-05-06 05:27 39.03428 25.13593 40070 ft 420 kts 321°
2026-05-06 05:27 39.07298 25.09726 40071 ft 420 kts 321°
2026-05-06 05:28 39.12666 25.04353 40070 ft 421 kts 321°
2026-05-06 05:28 39.16533 25.00475 40059 ft 420 kts 321°
2026-05-06 05:29 39.21147 24.95842 40069 ft 420 kts 321°
2026-05-06 05:29 39.25754 24.91207 40069 ft 420 kts 321°
2026-05-06 05:30 39.30362 24.86564 40068 ft 420 kts 321°
2026-05-06 05:30 39.34961 24.81921 40067 ft 420 kts 321°
2026-05-06 05:31 39.39561 24.77270 40066 ft 420 kts 321°
2026-05-06 05:31 39.44159 24.72612 40065 ft 420 kts 321°
2026-05-06 05:32 39.48753 24.67950 40084 ft 420 kts 321°
2026-05-06 05:32 39.53352 24.63276 40070 ft 420 kts 321°
2026-05-06 05:33 39.57917 24.58628 40067 ft 420 kts 321°
2026-05-06 05:33 39.62510 24.53943 40064 ft 420 kts 321°
2026-05-06 05:34 39.67104 24.49249 40062 ft 420 kts 321°
2026-05-06 05:34 39.71697 24.44549 40062 ft 420 kts 321°
2026-05-06 05:35 39.76286 24.39844 40074 ft 420 kts 321°
2026-05-06 05:35 39.80875 24.35131 40054 ft 420 kts 321°
2026-05-06 05:36 39.85460 24.30413 40059 ft 420 kts 321°
2026-05-06 05:36 39.90041 24.25691 40068 ft 420 kts 321°
2026-05-06 05:37 39.94623 24.20961 40068 ft 420 kts 321°
2026-05-06 05:37 39.99200 24.16227 40064 ft 420 kts 321°
2026-05-06 05:38 40.03776 24.11485 40072 ft 420 kts 321°
2026-05-06 05:38 40.08356 24.06731 40051 ft 421 kts 321°
2026-05-06 05:39 40.12928 24.01978 40062 ft 420 kts 321°
2026-05-06 05:39 40.17498 23.97217 40066 ft 420 kts 321°
2026-05-06 05:40 40.22062 23.92454 40065 ft 420 kts 321°
2026-05-06 05:40 40.26626 23.87684 40066 ft 420 kts 321°
2026-05-06 05:41 40.31185 23.82909 40066 ft 420 kts 321°
2026-05-06 05:41 40.35744 23.78126 40063 ft 420 kts 321°
2026-05-06 05:42 40.40299 23.73340 40062 ft 419 kts 320°
2026-05-06 05:42 40.44842 23.68556 40062 ft 419 kts 320°
2026-05-06 05:43 40.49378 23.63772 40070 ft 418 kts 320°
2026-05-06 05:43 40.53912 23.58982 40080 ft 418 kts 320°
2026-05-06 05:44 40.58448 23.54180 40071 ft 419 kts 321°
2026-05-06 05:44 40.62986 23.49368 40070 ft 419 kts 321°
2026-05-06 05:45 40.67518 23.44554 40069 ft 419 kts 320°
2026-05-06 05:45 40.72050 23.39731 40066 ft 418 kts 320°
2026-05-06 05:46 40.76570 23.34912 40075 ft 418 kts 320°
2026-05-06 05:46 40.81085 23.30089 40084 ft 417 kts 320°
2026-05-06 05:47 40.85597 23.25261 40065 ft 417 kts 320°
2026-05-06 05:47 40.90107 23.20426 40079 ft 418 kts 320°
2026-05-06 05:48 40.94617 23.15583 40065 ft 418 kts 320°
2026-05-06 05:48 40.99125 23.10732 40074 ft 417 kts 320°
2026-05-06 05:49 41.03627 23.05879 40075 ft 417 kts 320°
2026-05-06 05:49 41.08128 23.01020 40086 ft 418 kts 320°
2026-05-06 05:50 41.12226 22.95595 40091 ft 417 kts 310°
2026-05-06 05:50 41.15931 22.89673 40088 ft 417 kts 310°
2026-05-06 05:51 41.19657 22.83760 40077 ft 418 kts 310°
2026-05-06 05:51 41.23400 22.77857 40060 ft 418 kts 310°
2026-05-06 05:52 41.27194 22.72016 40071 ft 417 kts 311°
2026-05-06 05:52 41.31120 22.66325 40085 ft 417 kts 312°
2026-05-06 05:53 41.35024 22.60678 40081 ft 418 kts 312°
2026-05-06 05:53 41.38941 22.54960 40087 ft 418 kts 312°
2026-05-06 05:54 41.42849 22.49220 40083 ft 418 kts 312°
2026-05-06 05:54 41.46753 22.43467 40074 ft 418 kts 311°
2026-05-06 05:55 41.50653 22.37710 40082 ft 418 kts 311°
2026-05-06 05:55 41.54579 22.31905 40085 ft 418 kts 311°
2026-05-06 05:56 41.58450 22.26169 40085 ft 419 kts 311°
2026-05-06 05:56 41.62346 22.20384 40084 ft 419 kts 311°
2026-05-06 05:57 41.66239 22.14593 40086 ft 419 kts 311°
2026-05-06 05:57 41.70133 22.08789 40077 ft 419 kts 311°
2026-05-06 05:58 41.74026 22.02976 40086 ft 419 kts 311°
2026-05-06 05:58 41.77918 21.97152 40092 ft 420 kts 311°
2026-05-06 05:59 41.81809 21.91318 40091 ft 420 kts 311°
2026-05-06 05:59 41.85694 21.85482 40098 ft 419 kts 311°
2026-05-06 06:00 41.89576 21.79638 40101 ft 419 kts 311°
2026-05-06 06:00 41.93457 21.73784 40108 ft 420 kts 311°
2026-05-06 06:01 41.97343 21.67912 40100 ft 421 kts 311°
2026-05-06 06:01 42.01231 21.62024 40103 ft 421 kts 311°
2026-05-06 06:02 42.05119 21.56125 40087 ft 422 kts 310°
2026-05-06 06:02 42.09006 21.50214 40095 ft 422 kts 311°
2026-05-06 06:03 42.12891 21.44296 40086 ft 422 kts 310°
2026-05-06 06:03 42.16769 21.38365 40083 ft 421 kts 310°
2026-05-06 06:04 42.20578 21.32362 40103 ft 421 kts 309°
2026-05-06 06:04 42.24371 21.26318 40095 ft 422 kts 309°
2026-05-06 06:05 42.28166 21.20271 40088 ft 422 kts 309°
2026-05-06 06:05 42.31964 21.14221 40090 ft 422 kts 309°
2026-05-06 06:06 42.35761 21.08165 40098 ft 422 kts 309°
2026-05-06 06:06 42.39555 21.02102 40099 ft 423 kts 309°
2026-05-06 06:07 42.43351 20.96022 40099 ft 423 kts 309°
2026-05-06 06:07 42.47143 20.89937 40103 ft 423 kts 309°
2026-05-06 06:08 42.50936 20.83836 40098 ft 423 kts 309°
2026-05-06 06:08 42.54729 20.77725 40088 ft 424 kts 309°
2026-05-06 06:09 42.58523 20.71599 40096 ft 424 kts 309°
2026-05-06 06:09 42.62322 20.65451 40091 ft 425 kts 309°
2026-05-06 06:10 42.65476 20.60336 40081 ft 425 kts 309°
2026-05-06 06:10 42.69269 20.54175 40084 ft 425 kts 309°
2026-05-06 06:11 42.73059 20.48005 40083 ft 425 kts 309°
2026-05-06 06:11 42.76848 20.41822 40085 ft 426 kts 308°
2026-05-06 06:12 42.81254 20.34620 40082 ft 426 kts 308°
2026-05-06 06:12 42.84387 20.29378 40079 ft 426 kts 306°
2026-05-06 06:13 42.87878 20.22853 40076 ft 426 kts 304°
2026-05-06 06:13 42.91295 20.16263 40079 ft 426 kts 304°
2026-05-06 06:14 42.94725 20.09679 40079 ft 425 kts 304°
2026-05-06 06:14 42.98168 20.03103 40077 ft 426 kts 304°
2026-05-06 06:15 43.01612 19.96532 40078 ft 425 kts 304°
2026-05-06 06:15 43.05054 19.89954 40074 ft 425 kts 304°
2026-05-06 06:16 43.08491 19.83370 40074 ft 425 kts 304°
2026-05-06 06:16 43.11923 19.76781 40071 ft 425 kts 304°
2026-05-06 06:17 43.15354 19.70178 40076 ft 425 kts 304°
2026-05-06 06:17 43.18779 19.63572 40075 ft 425 kts 304°
2026-05-06 06:18 43.22177 19.57003 40067 ft 425 kts 304°
2026-05-06 06:18 43.25594 19.50382 40074 ft 425 kts 304°
2026-05-06 06:19 43.29011 19.43748 40065 ft 426 kts 303°
2026-05-06 06:19 43.32427 19.37100 40073 ft 426 kts 303°
2026-05-06 06:20 43.35837 19.30450 40072 ft 427 kts 303°
2026-05-06 06:20 43.39251 19.23775 40068 ft 427 kts 303°
2026-05-06 06:21 43.42660 19.17097 40069 ft 426 kts 303°
2026-05-06 06:21 43.46064 19.10412 40048 ft 427 kts 303°
2026-05-06 06:22 43.49468 19.03712 40061 ft 427 kts 303°
2026-05-06 06:22 43.52894 18.96954 40056 ft 427 kts 303°
2026-05-06 06:23 43.56270 18.90279 40056 ft 427 kts 303°
2026-05-06 06:23 43.59667 18.83546 40057 ft 428 kts 303°
2026-05-06 06:24 43.63064 18.76800 40054 ft 428 kts 302°
2026-05-06 06:24 43.66455 18.70047 40043 ft 428 kts 302°
2026-05-06 06:25 43.69842 18.63289 40051 ft 428 kts 302°
2026-05-06 06:26 43.74906 18.53156 40063 ft 427 kts 302°
2026-05-06 06:26 43.78277 18.46389 40041 ft 427 kts 302°
2026-05-06 06:27 43.81642 18.39621 40048 ft 426 kts 302°
2026-05-06 06:27 43.85001 18.32848 40050 ft 427 kts 302°
2026-05-06 06:28 43.88357 18.26065 40050 ft 427 kts 302°
2026-05-06 06:28 43.91710 18.19274 40051 ft 427 kts 302°
2026-05-06 06:29 43.95058 18.12475 40050 ft 427 kts 302°
2026-05-06 06:29 43.98408 18.05657 40050 ft 427 kts 302°
2026-05-06 06:30 44.01755 17.98831 40045 ft 428 kts 301°
2026-05-06 06:30 44.05100 17.91991 40042 ft 428 kts 301°
2026-05-06 06:31 44.08445 17.85134 40038 ft 428 kts 301°
2026-05-06 06:31 44.11779 17.78286 40040 ft 428 kts 301°
2026-05-06 06:32 44.15111 17.71425 40036 ft 427 kts 301°
2026-05-06 06:32 44.18438 17.64557 40040 ft 428 kts 301°
2026-05-06 06:33 44.21771 17.57660 40035 ft 429 kts 301°
2026-05-06 06:33 44.25109 17.50738 40027 ft 430 kts 301°
2026-05-06 06:34 44.28442 17.43810 40014 ft 430 kts 301°
2026-05-06 06:34 44.31772 17.36871 40025 ft 431 kts 300°
2026-05-06 06:35 44.35105 17.29909 40021 ft 431 kts 300°
2026-05-06 06:35 44.38432 17.22942 40016 ft 431 kts 300°
2026-05-06 06:36 44.41760 17.15956 40010 ft 432 kts 300°
2026-05-06 06:36 44.45084 17.08962 40014 ft 432 kts 300°
2026-05-06 06:37 44.48410 17.01947 40008 ft 433 kts 300°
2026-05-06 06:37 44.51735 16.94916 40004 ft 433 kts 300°
2026-05-06 06:38 44.55061 16.87869 40001 ft 434 kts 300°
2026-05-06 06:38 44.58384 16.80808 40002 ft 434 kts 300°
2026-05-06 06:39 44.61709 16.73726 39993 ft 435 kts 299°
2026-05-06 06:39 44.65033 16.66629 39989 ft 435 kts 299°
2026-05-06 06:40 44.68355 16.59515 39990 ft 435 kts 299°
2026-05-06 06:40 44.71673 16.52400 39993 ft 435 kts 299°
2026-05-06 06:41 44.74988 16.45269 39986 ft 436 kts 299°
2026-05-06 06:41 44.78308 16.38109 39985 ft 437 kts 299°
2026-05-06 06:42 44.81627 16.30934 39978 ft 438 kts 299°
2026-05-06 06:42 44.84946 16.23741 39979 ft 438 kts 299°
2026-05-06 06:43 44.88260 16.16541 39974 ft 439 kts 299°
2026-05-06 06:43 44.91559 16.09352 39977 ft 440 kts 299°
2026-05-06 06:44 44.94880 16.02100 39971 ft 441 kts 299°
2026-05-06 06:44 44.98207 15.94817 39971 ft 441 kts 299°
2026-05-06 06:45 45.01533 15.87519 39973 ft 442 kts 299°
2026-05-06 06:45 45.04866 15.80182 39980 ft 445 kts 298°
2026-05-06 06:46 45.08209 15.72807 39982 ft 446 kts 299°
2026-05-06 06:46 45.11562 15.65390 39972 ft 448 kts 299°
2026-05-06 06:47 45.14919 15.57947 39972 ft 449 kts 299°
2026-05-06 06:47 45.18281 15.50470 39969 ft 451 kts 299°
2026-05-06 06:48 45.21645 15.42970 39976 ft 451 kts 299°
2026-05-06 06:48 45.25012 15.35444 39971 ft 452 kts 299°
2026-05-06 06:49 45.28374 15.27910 39976 ft 452 kts 299°
2026-05-06 06:49 45.31736 15.20355 39972 ft 452 kts 299°
2026-05-06 06:50 45.35090 15.12796 39971 ft 452 kts 299°
2026-05-06 06:50 45.38440 15.05226 39974 ft 452 kts 299°
2026-05-06 06:51 45.41787 14.97644 39975 ft 452 kts 299°
2026-05-06 06:51 45.45124 14.90065 40004 ft 452 kts 299°
2026-05-06 06:52 45.48512 14.82508 39990 ft 453 kts 301°
2026-05-06 06:52 45.52083 14.75094 39978 ft 454 kts 302°
2026-05-06 06:53 45.55646 14.67741 39967 ft 454 kts 302°
2026-05-06 06:53 45.59224 14.60270 39970 ft 453 kts 301°
2026-05-06 06:54 45.62723 14.52909 39966 ft 446 kts 301°
2026-05-06 06:54 45.66161 14.45646 39971 ft 438 kts 301°
2026-05-06 06:55 45.69557 14.38451 39946 ft 435 kts 301°
2026-05-06 06:55 45.72929 14.31288 39948 ft 434 kts 301°
2026-05-06 06:56 45.75749 14.25285 39983 ft 434 kts 300°
2026-05-06 06:56 45.79108 14.18119 39967 ft 433 kts 300°
2026-05-06 06:57 45.82437 14.10999 39942 ft 432 kts 300°
2026-05-06 06:57 45.85801 14.03787 39951 ft 432 kts 300°
2026-05-06 06:58 45.89113 13.96668 39950 ft 432 kts 300°
2026-05-06 06:58 45.92470 13.89434 39962 ft 433 kts 300°
2026-05-06 06:59 45.95780 13.82281 39954 ft 433 kts 300°
2026-05-06 06:59 45.99109 13.75070 39949 ft 433 kts 300°
2026-05-06 07:00 46.02438 13.67841 39946 ft 434 kts 299°
2026-05-06 07:00 46.05766 13.60590 39945 ft 434 kts 298°
2026-05-06 07:01 46.08786 13.53106 39944 ft 432 kts 295°
2026-05-06 07:01 46.11658 13.45518 39953 ft 432 kts 294°
2026-05-06 07:02 46.14532 13.37925 39942 ft 432 kts 294°
2026-05-06 07:02 46.17430 13.30319 39942 ft 432 kts 294°
2026-05-06 07:03 46.20330 13.22718 39962 ft 433 kts 294°
2026-05-06 07:03 46.23235 13.15089 39958 ft 434 kts 294°
2026-05-06 07:04 46.26143 13.07433 39949 ft 436 kts 294°
2026-05-06 07:04 46.29052 12.99753 39955 ft 435 kts 294°
2026-05-06 07:05 46.31953 12.92070 39961 ft 435 kts 294°
2026-05-06 07:05 46.34855 12.84360 39963 ft 437 kts 294°
2026-05-06 07:06 46.37761 12.76616 39955 ft 438 kts 294°
2026-05-06 07:06 46.40668 12.68852 39956 ft 438 kts 294°
2026-05-06 07:07 46.43569 12.61081 39954 ft 439 kts 294°
2026-05-06 07:07 46.46465 12.53301 39965 ft 439 kts 293°
2026-05-06 07:08 46.49361 12.45494 39967 ft 439 kts 293°
2026-05-06 07:08 46.52234 12.37732 39959 ft 439 kts 293°
2026-05-06 07:09 46.55125 12.29898 39993 ft 437 kts 294°
2026-05-06 07:09 46.57995 12.22093 39986 ft 439 kts 293°
2026-05-06 07:10 46.60870 12.14254 39942 ft 440 kts 294°
2026-05-06 07:10 46.63752 12.06373 39951 ft 442 kts 294°
2026-05-06 07:11 46.66640 11.98453 39944 ft 444 kts 294°
2026-05-06 07:11 46.69527 11.90515 39927 ft 443 kts 294°
2026-05-06 07:12 46.72405 11.82578 39931 ft 443 kts 293°
2026-05-06 07:12 46.75283 11.74615 39922 ft 445 kts 293°
2026-05-06 07:13 46.78161 11.66625 39918 ft 445 kts 293°
2026-05-06 07:13 46.81034 11.58629 39923 ft 445 kts 293°
2026-05-06 07:14 46.83911 11.50597 39910 ft 447 kts 293°
2026-05-06 07:14 46.86785 11.42548 39898 ft 447 kts 293°
2026-05-06 07:15 46.89658 11.34476 39923 ft 448 kts 293°
2026-05-06 07:15 46.92538 11.26366 39895 ft 450 kts 293°
2026-05-06 07:16 46.95859 11.18563 39885 ft 459 kts 307°
2026-05-06 07:16 47.00199 11.11684 39915 ft 460 kts 309°
2026-05-06 07:17 47.04601 11.04857 39871 ft 461 kts 308°
2026-05-06 07:17 47.08966 10.97973 39892 ft 461 kts 308°
2026-05-06 07:18 47.13321 10.91022 39816 ft 463 kts 308°
2026-05-06 07:18 47.17654 10.84082 39833 ft 461 kts 308°
2026-05-06 07:19 47.21984 10.77127 39837 ft 461 kts 308°
2026-05-06 07:19 47.26328 10.70130 39821 ft 464 kts 308°
2026-05-06 07:20 47.30670 10.63125 39806 ft 462 kts 308°
2026-05-06 07:20 47.35003 10.56114 39830 ft 463 kts 308°
2026-05-06 07:21 47.39355 10.49062 39820 ft 466 kts 309°
2026-05-06 07:21 47.44318 10.42781 39836 ft 473 kts 318°
2026-05-06 07:22 47.49560 10.36888 39819 ft 473 kts 318°
2026-05-06 07:22 47.54783 10.30975 39813 ft 472 kts 317°
2026-05-06 07:23 47.59963 10.25013 39809 ft 471 kts 317°
2026-05-06 07:23 47.65117 10.19034 39822 ft 469 kts 317°
2026-05-06 07:24 47.70248 10.13063 39819 ft 468 kts 317°
2026-05-06 07:24 47.75372 10.07088 39828 ft 468 kts 317°
2026-05-06 07:25 47.80502 10.01092 39821 ft 470 kts 317°
2026-05-06 07:25 47.85639 9.95073 39827 ft 470 kts 317°
2026-05-06 07:26 47.90750 9.89069 39826 ft 471 kts 317°
2026-05-06 07:26 47.95896 9.83008 39810 ft 472 kts 317°
2026-05-06 07:27 48.01049 9.76923 39817 ft 472 kts 317°
2026-05-06 07:27 48.06202 9.70823 39812 ft 473 kts 317°
2026-05-06 07:28 48.11242 9.64546 39807 ft 469 kts 313°
2026-05-06 07:28 48.18234 9.54327 39797 ft 468 kts 310°
2026-05-06 07:29 48.22864 9.47468 39802 ft 468 kts 311°
2026-05-06 07:29 48.27521 9.40640 39806 ft 468 kts 311°
2026-05-06 07:30 48.32188 9.33824 39801 ft 468 kts 311°
2026-05-06 07:30 48.36844 9.27015 39800 ft 467 kts 311°
2026-05-06 07:31 48.41490 9.20198 39797 ft 466 kts 311°
2026-05-06 07:31 48.46128 9.13373 39796 ft 466 kts 311°
2026-05-06 07:32 48.50759 9.06537 39798 ft 466 kts 311°
2026-05-06 07:32 48.55386 8.99689 39802 ft 466 kts 311°
2026-05-06 07:33 48.60016 8.92819 39799 ft 467 kts 311°
2026-05-06 07:33 48.64645 8.85932 39798 ft 467 kts 311°
2026-05-06 07:34 48.69269 8.79033 39796 ft 467 kts 311°
2026-05-06 07:34 48.73891 8.72119 39804 ft 467 kts 311°
2026-05-06 07:35 48.78516 8.65180 39797 ft 468 kts 311°
2026-05-06 07:35 48.83136 8.58231 39790 ft 468 kts 311°
2026-05-06 07:36 48.87753 8.51267 39791 ft 468 kts 311°
2026-05-06 07:36 48.92366 8.44289 39791 ft 468 kts 311°
2026-05-06 07:37 48.96973 8.37302 39795 ft 468 kts 311°
2026-05-06 07:37 49.00801 8.31480 39792 ft 468 kts 311°
2026-05-06 07:38 49.06180 8.23279 39790 ft 468 kts 311°
2026-05-06 07:38 49.09998 8.17441 39788 ft 468 kts 311°
2026-05-06 07:39 49.14590 8.10402 39783 ft 468 kts 311°
2026-05-06 07:39 49.19180 8.03346 39786 ft 468 kts 311°
2026-05-06 07:40 49.23765 7.96278 39790 ft 468 kts 311°
2026-05-06 07:40 49.28353 7.89184 39778 ft 469 kts 311°
2026-05-06 07:41 49.32941 7.82074 39770 ft 469 kts 311°
2026-05-06 07:41 49.37524 7.74949 39771 ft 469 kts 311°
2026-05-06 07:42 49.42105 7.67807 39768 ft 469 kts 311°
2026-05-06 07:42 49.46686 7.60646 39777 ft 469 kts 311°
2026-05-06 07:43 49.51225 7.53529 39776 ft 470 kts 311°
2026-05-06 07:43 49.55795 7.46343 39765 ft 470 kts 311°
2026-05-06 07:44 49.60363 7.39142 39772 ft 470 kts 311°
2026-05-06 07:44 49.64923 7.31931 39763 ft 470 kts 311°
2026-05-06 07:45 49.69479 7.24706 39757 ft 469 kts 311°
2026-05-06 07:45 49.74033 7.17464 39754 ft 470 kts 311°
2026-05-06 07:46 49.78588 7.10200 39756 ft 470 kts 311°
2026-05-06 07:46 49.83138 7.02921 39740 ft 471 kts 311°
2026-05-06 07:47 49.87688 6.95622 39734 ft 471 kts 311°
2026-05-06 07:47 49.92229 6.88318 39752 ft 471 kts 311°
2026-05-06 07:48 49.96773 6.80985 39773 ft 471 kts 311°
2026-05-06 07:48 50.01307 6.73650 39763 ft 471 kts 311°
2026-05-06 07:49 50.05839 6.66295 39760 ft 471 kts 311°
2026-05-06 07:49 50.10364 6.58928 39753 ft 470 kts 311°
2026-05-06 07:50 50.14879 6.51559 39739 ft 470 kts 311°
2026-05-06 07:50 50.19264 6.44034 39731 ft 467 kts 303°
2026-05-06 07:51 50.22727 6.35495 39767 ft 465 kts 298°
2026-05-06 07:51 50.26057 6.26815 39768 ft 466 kts 298°
2026-05-06 07:52 50.29407 6.18143 39791 ft 466 kts 299°
2026-05-06 07:52 50.32787 6.09468 39787 ft 467 kts 299°
2026-05-06 07:53 50.36170 6.00794 39802 ft 467 kts 299°
2026-05-06 07:53 50.39548 5.92110 39804 ft 467 kts 299°
2026-05-06 07:54 50.42918 5.83410 39800 ft 467 kts 299°
2026-05-06 07:54 50.46280 5.74701 39803 ft 466 kts 299°
2026-05-06 07:55 50.49633 5.65986 39814 ft 466 kts 299°
2026-05-06 07:55 50.52984 5.57244 39821 ft 467 kts 298°
2026-05-06 07:56 50.56332 5.48484 39807 ft 467 kts 299°
2026-05-06 07:56 50.59665 5.39733 39812 ft 466 kts 298°
2026-05-06 07:57 50.62983 5.30990 39827 ft 465 kts 298°
2026-05-06 07:57 50.66291 5.22244 39829 ft 464 kts 298°
2026-05-06 07:58 50.69589 5.13495 39842 ft 464 kts 298°
2026-05-06 07:58 50.72882 5.04732 39841 ft 464 kts 298°
2026-05-06 07:59 50.76166 4.95960 39840 ft 464 kts 298°
2026-05-06 07:59 50.79443 4.87179 39856 ft 464 kts 298°
2026-05-06 08:00 50.82712 4.78386 39851 ft 464 kts 298°
2026-05-06 08:00 50.85974 4.69585 39860 ft 463 kts 298°
2026-05-06 08:01 50.89230 4.60771 39855 ft 464 kts 298°
2026-05-06 08:01 50.92478 4.51944 39856 ft 464 kts 298°
2026-05-06 08:02 50.95720 4.43107 39859 ft 464 kts 298°
2026-05-06 08:02 50.98955 4.34256 39857 ft 464 kts 298°
2026-05-06 08:03 51.02184 4.25392 39864 ft 464 kts 298°
2026-05-06 08:03 51.05406 4.16516 39870 ft 464 kts 298°
2026-05-06 08:04 51.08623 4.07623 39876 ft 464 kts 298°
2026-05-06 08:04 51.11812 3.98777 39870 ft 464 kts 298°
2026-05-06 08:05 51.15037 3.89798 39870 ft 464 kts 298°
2026-05-06 08:05 51.18233 3.80869 39876 ft 464 kts 297°
2026-05-06 08:06 51.21404 3.71982 39871 ft 464 kts 297°
2026-05-06 08:06 51.24101 3.62623 39867 ft 460 kts 283°
2026-05-06 08:07 51.25391 3.52647 39878 ft 459 kts 279°
2026-05-06 08:07 51.26635 3.42654 39883 ft 459 kts 280°
2026-05-06 08:08 51.27945 3.32668 39899 ft 459 kts 280°
2026-05-06 08:08 51.29244 3.22675 39906 ft 460 kts 280°
2026-05-06 08:09 51.30534 3.12664 39907 ft 460 kts 279°
2026-05-06 08:09 51.31804 3.02723 39903 ft 459 kts 279°
2026-05-06 08:10 51.33082 2.92655 39897 ft 460 kts 279°
2026-05-06 08:10 51.34337 2.82701 39910 ft 460 kts 279°
2026-05-06 08:11 51.34967 2.77674 39567 ft 463 kts 279°
2026-05-06 08:11 51.35590 2.72687 38754 ft 458 kts 279°
2026-05-06 08:11 51.36203 2.67713 37897 ft 451 kts 279°
2026-05-06 08:11 51.36801 2.62815 37081 ft 445 kts 279°
2026-05-06 08:12 51.37387 2.58011 36361 ft 436 kts 279°
2026-05-06 08:12 51.37964 2.53244 35640 ft 437 kts 279°
2026-05-06 08:12 51.38543 2.48457 34835 ft 440 kts 280°
2026-05-06 08:12 51.39124 2.43635 33991 ft 443 kts 281°
2026-05-06 08:13 51.39709 2.38769 32951 ft 447 kts 280°
2026-05-06 08:13 51.40299 2.33864 31984 ft 449 kts 280°
2026-05-06 08:13 51.40888 2.28939 30981 ft 452 kts 280°
2026-05-06 08:13 51.41479 2.23983 29953 ft 454 kts 279°
2026-05-06 08:14 51.42086 2.19002 28660 ft 457 kts 280°
2026-05-06 08:14 51.42700 2.13992 27418 ft 459 kts 280°
2026-05-06 08:14 51.43315 2.08971 26152 ft 460 kts 280°
2026-05-06 08:14 51.43925 2.03947 25141 ft 456 kts 280°
2026-05-06 08:15 51.44525 1.98984 24202 ft 451 kts 280°
2026-05-06 08:15 51.45110 1.94081 23220 ft 445 kts 280°
2026-05-06 08:15 51.45685 1.89237 22350 ft 439 kts 280°
2026-05-06 08:15 51.46249 1.84427 22026 ft 436 kts 280°
2026-05-06 08:16 51.46798 1.79651 21962 ft 439 kts 280°
2026-05-06 08:16 51.47353 1.74798 21949 ft 444 kts 280°
2026-05-06 08:16 51.47907 1.69939 21943 ft 442 kts 280°
2026-05-06 08:16 51.48453 1.65097 21934 ft 438 kts 278°
2026-05-06 08:17 51.48568 1.60360 21176 ft 419 kts 263°
2026-05-06 08:17 51.47816 1.55895 19965 ft 412 kts 250°
2026-05-06 08:17 51.46772 1.51659 18809 ft 404 kts 250°
2026-05-06 08:17 51.45761 1.47497 17623 ft 397 kts 251°
2026-05-06 08:18 51.44797 1.43395 16406 ft 389 kts 251°
2026-05-06 08:18 51.43807 1.39400 15236 ft 382 kts 243°
2026-05-06 08:18 51.42222 1.36032 14409 ft 379 kts 224°
2026-05-06 08:18 51.40158 1.33325 14268 ft 390 kts 218°
2026-05-06 08:19 51.37945 1.30718 14154 ft 398 kts 217°
2026-05-06 08:19 51.35680 1.28118 14034 ft 401 kts 217°
2026-05-06 08:19 51.33439 1.25476 13966 ft 399 kts 221°
2026-05-06 08:19 51.31556 1.22321 13964 ft 399 kts 232°
2026-05-06 08:20 51.30013 1.18632 13963 ft 400 kts 239°
2026-05-06 08:20 51.28590 1.14821 13962 ft 399 kts 240°
2026-05-06 08:20 51.27202 1.11085 13893 ft 383 kts 240°
2026-05-06 08:20 51.25873 1.07523 13764 ft 360 kts 239°
2026-05-06 08:21 51.24633 1.04226 13582 ft 334 kts 239°
2026-05-06 08:21 51.23476 1.01163 13415 ft 312 kts 239°
2026-05-06 08:21 51.22389 0.98299 13283 ft 292 kts 239°
2026-05-06 08:21 51.21355 0.95577 12872 ft 284 kts 240°
2026-05-06 08:22 51.20329 0.92881 12312 ft 286 kts 240°
2026-05-06 08:22 51.19299 0.90180 12118 ft 284 kts 240°
2026-05-06 08:22 51.18602 0.88353 12050 ft 286 kts 240°
2026-05-06 08:22 51.17234 0.84773 12019 ft 284 kts 240°
2026-05-06 08:23 51.16209 0.82097 12031 ft 282 kts 240°
2026-05-06 08:23 51.15184 0.79421 12040 ft 284 kts 240°
2026-05-06 08:23 51.14491 0.77614 12024 ft 283 kts 240°
2026-05-06 08:23 51.13474 0.74967 11877 ft 276 kts 240°
2026-05-06 08:24 51.12484 0.72391 11413 ft 278 kts 241°
2026-05-06 08:24 51.11468 0.69748 10952 ft 280 kts 240°
2026-05-06 08:24 51.10450 0.67107 10589 ft 279 kts 240°
2026-05-06 08:24 51.09439 0.64485 10238 ft 277 kts 240°
2026-05-06 08:25 51.08432 0.61876 9843 ft 277 kts 241°
2026-05-06 08:25 51.07428 0.59278 9466 ft 275 kts 242°
2026-05-06 08:25 51.06432 0.56702 9100 ft 272 kts 242°
2026-05-06 08:25 51.05443 0.54147 8715 ft 271 kts 242°
2026-05-06 08:26 51.04458 0.51605 8336 ft 270 kts 242°
2026-05-06 08:26 51.03478 0.49079 8108 ft 268 kts 242°
2026-05-06 08:26 51.02500 0.46558 8072 ft 269 kts 242°
2026-05-06 08:26 51.01549 0.44005 8058 ft 267 kts 250°
2026-05-06 08:27 51.01221 0.41178 8084 ft 260 kts 271°
2026-05-06 08:27 51.01150 0.38292 8066 ft 263 kts 271°
2026-05-06 08:27 51.01081 0.35393 8067 ft 263 kts 271°
2026-05-06 08:27 51.01047 0.32487 8063 ft 263 kts 274°
2026-05-06 08:28 51.01135 0.29585 8050 ft 263 kts 276°
2026-05-06 08:28 51.01245 0.26724 7938 ft 254 kts 276°
2026-05-06 08:28 51.01346 0.23947 7419 ft 253 kts 276°
2026-05-06 08:28 51.01440 0.21152 6848 ft 253 kts 276°
2026-05-06 08:29 51.01523 0.18379 6398 ft 249 kts 276°
2026-05-06 08:29 51.01602 0.15650 5886 ft 249 kts 276°
2026-05-06 08:29 51.01681 0.12895 5484 ft 249 kts 277°
2026-05-06 08:29 51.01771 0.10154 5111 ft 248 kts 278°
2026-05-06 08:30 51.01888 0.07425 5045 ft 248 kts 278°
2026-05-06 08:30 51.02011 0.04689 5032 ft 248 kts 278°
2026-05-06 08:30 51.02132 0.01950 5019 ft 249 kts 278°
2026-05-06 08:30 51.02253 -0.00796 4984 ft 249 kts 278°
2026-05-06 08:31 51.02372 -0.03538 4993 ft 249 kts 278°
2026-05-06 08:31 51.02491 -0.06286 4992 ft 250 kts 278°
2026-05-06 08:31 51.02607 -0.09010 4985 ft 251 kts 277°
2026-05-06 08:31 51.02724 -0.11776 4991 ft 251 kts 277°
2026-05-06 08:32 51.02841 -0.14543 5004 ft 252 kts 277°
2026-05-06 08:32 51.02955 -0.17295 4983 ft 245 kts 277°
2026-05-06 08:32 51.03063 -0.19932 4974 ft 233 kts 277°
2026-05-06 08:32 51.03167 -0.22460 5003 ft 227 kts 278°
2026-05-06 08:33 51.03270 -0.24940 5001 ft 225 kts 278°
2026-05-06 08:33 51.03373 -0.27425 5010 ft 225 kts 278°
2026-05-06 08:33 51.03473 -0.29889 4913 ft 223 kts 277°
2026-05-06 08:33 51.03572 -0.32340 4444 ft 223 kts 278°
2026-05-06 08:34 51.03673 -0.34828 3764 ft 228 kts 278°
2026-05-06 08:34 51.03877 -0.39881 3066 ft 230 kts 278°
2026-05-06 08:34 51.03970 -0.42323 2988 ft 211 kts 278°
2026-05-06 08:35 51.04054 -0.44548 2968 ft 193 kts 278°
2026-05-06 08:35 51.04136 -0.46653 2983 ft 191 kts 279°
2026-05-06 08:35 51.04219 -0.48752 2989 ft 189 kts 279°
2026-05-06 08:35 51.04512 -0.50734 2987 ft 180 kts 301°
2026-05-06 08:36 51.05241 -0.52289 2991 ft 173 kts 323°
2026-05-06 08:36 51.06251 -0.53250 3005 ft 167 kts 343°
2026-05-06 08:36 51.07376 -0.53563 3001 ft 164 kts
2026-05-06 08:36 51.08492 -0.53237 3001 ft 164 kts 20°
2026-05-06 08:37 51.09463 -0.52326 2997 ft 167 kts 39°
2026-05-06 08:37 51.10192 -0.50870 2989 ft 172 kts 61°
2026-05-06 08:37 51.10605 -0.49065 2998 ft 175 kts 67°
2026-05-06 08:37 51.10947 -0.47200 2994 ft 177 kts 71°
2026-05-06 08:38 51.11234 -0.45290 2994 ft 178 kts 72°
2026-05-06 08:38 51.11501 -0.43365 2996 ft 179 kts 73°
2026-05-06 08:38 51.11766 -0.41408 2880 ft 182 kts 73°
2026-05-06 08:38 51.12028 -0.39461 2640 ft 173 kts 73°
2026-05-06 08:39 51.12266 -0.37688 2409 ft 155 kts 73°
2026-05-06 08:39 51.12478 -0.36118 2238 ft 135 kts 72°
2026-05-06 08:39 51.12666 -0.34738 2022 ft 122 kts 71°
2026-05-06 08:39 51.12843 -0.33450 1874 ft 119 kts 72°
2026-05-06 08:40 51.13018 -0.32165 1734 ft 119 kts 72°
2026-05-06 08:40 51.13186 -0.30855 1557 ft 121 kts 72°
2026-05-06 08:40 51.13366 -0.29563 1370 ft 118 kts 72°
2026-05-06 08:40 51.13518 -0.28276 1198 ft 119 kts 73°
2026-05-06 08:41 51.13699 -0.26974 1041 ft 122 kts 69°
2026-05-06 08:41 51.13913 -0.25668 926 ft 121 kts 73°
2026-05-06 08:41 51.14065 -0.24392 721 ft 114 kts 76°
2026-05-06 08:41 51.14222 -0.23139 563 ft 118 kts 69°
2026-05-06 08:42 51.14426 -0.21809 388 ft 126 kts 72°
2026-05-06 08:42 51.14606 -0.20495 218 ft 114 kts 72°
2026-05-06 08:42 51.14756 -0.19445 214 ft 75 kts 77°
2026-05-06 08:42 51.14838 -0.18866 202 ft 38 kts 77°
2026-05-06 08:43 51.14893 -0.18470 201 ft 35 kts 77°
2026-05-06 08:43 51.14940 -0.18114 203 ft 31 kts 78°
2026-05-06 08:43 51.14982 -0.17794 207 ft 28 kts 78°
2026-05-06 08:43 51.15023 -0.17497 207 ft 27 kts 77°
2026-05-06 08:44 51.15103 -0.17246 210 ft 25 kts 51°
2026-05-06 08:44 51.15183 -0.17244 212 ft 8 kts 323°
2026-05-06 08:44 51.15203 -0.17269 206 ft 0 kts 322°
2026-05-06 08:45 51.15205 -0.17271 206 ft 4 kts 322°
2026-05-06 08:45 51.15292 -0.17349 203 ft 20 kts 346°
2026-05-06 08:46 51.15424 -0.17394 203 ft 17 kts 348°
2026-05-06 08:46 51.15531 -0.17444 206 ft 16 kts 315°
2026-05-06 08:46 51.15526 -0.17609 204 ft 12 kts 253°
2026-05-06 08:46 51.15505 -0.17630 206 ft 0 kts 184°
2026-05-06 08:47 51.15494 -0.17627 203 ft 5 kts 164°
2026-05-06 08:47 51.15470 -0.17617 203 ft 3 kts 167°
2026-05-06 08:47 51.15455 -0.17611 207 ft 0 kts 167°
2026-05-06 08:47 51.15453 -0.17611 208 ft 0 kts 167°
2026-05-06 08:48 51.15451 -0.17610 212 ft 0 kts 167°
2026-05-06 08:48 51.15449 -0.17609 212 ft 0 kts 167°
2026-05-06 08:48 51.15448 -0.17609 212 ft 0 kts 167°